Location: Hamilton Branch State Park
(33.7552°N, 82.2209°W)
Time: 21:38:28
(UTC-05:00)

KAITUO 1B - Visible Passes

Search period start: 20 November 2019 00:00
Search period end: 30 November 2019 00:00
Orbit: 496 x 516 km, 97.5° (Epoch: 20 November)

Date Brightness Start Highest point End Pass type
(mag) Time Alt. Az. Time Alt. Az. Time Alt. Az.
20 Nov ? 05:42:56 10° E 05:43:47 11° E 05:44:38 10° ESE visible
20 Nov ? 17:48:59 10° SSE 17:52:29 46° ENE 17:56:02 10° N visible
21 Nov ? 19:06:41 10° SW 19:08:42 14° W 19:10:42 10° WNW visible
22 Nov ? 06:38:36 10° NNE 06:42:21 66° ESE 06:46:05 10° S visible
22 Nov ? 18:47:50 10° SSW 18:50:50 24° W 18:53:53 10° NW visible
23 Nov ? 06:21:04 10° NNE 06:24:34 36° E 06:28:03 10° SSE visible
23 Nov ? 18:29:32 10° S 18:33:01 42° W 18:36:33 10° NNW visible
24 Nov ? 06:03:50 10° NE 06:06:45 21° E 06:09:40 10° SSE visible
24 Nov ? 18:11:37 10° S 18:15:15 80° W 18:18:57 10° NNW visible
25 Nov ? 05:47:14 10° ENE 05:48:54 13° E 05:50:34 10° ESE visible
25 Nov ? 17:53:57 10° SSE 17:57:32 55° ENE 18:01:09 10° N visible
26 Nov ? 19:12:14 10° WSW 19:13:46 12° W 19:15:19 10° WNW visible
27 Nov ? 18:53:05 10° SSW 18:55:54 21° W 18:58:44 10° NW visible
28 Nov ? 06:26:02 10° NNE 06:29:38 43° E 06:33:13 10° S visible
28 Nov ? 18:34:40 10° SSW 18:38:04 36° W 18:41:30 10° NNW visible
29 Nov ? 06:08:41 10° NE 06:11:49 25° E 06:14:56 10° SSE visible
29 Nov ? 18:16:38 10° S 18:20:16 67° W 18:23:58 10° NNW visible
